| time (UTC) | temp F | wind direction | speed MPH | gust MPH | rain 1hr in | rain 24hr in | rain mn in | humidity % | barometer mb |
| 20260905094543 | 56 | 168 | 0.0 | 0.0 | 0.00 | 0.00 | 0.00 | 1 | 1008.5 |
| 20260905093040 | 56 | 164 | 0.0 | 0.0 | 0.00 | 0.00 | 0.00 | 1 | 1008.6 |
| 20260905091503 | 56 | 169 | 0.0 | 2.0 | 0.00 | 0.00 | 0.00 | 1 | 1008.4 |
| 20260905090134 | 57 | 174 | 0.0 | 3.0 | 0.00 | 0.00 | 0.00 | 1 | 1008.5 |
| 20260905084524 | 57 | 162 | 1.0 | 3.0 | 0.00 | 0.00 | 0.00 | 1 | 1008.4 |
| 20260905083031 | 57 | 171 | 0.0 | 1.0 | 0.00 | 0.00 | 0.00 | 1 | 1008.5 |
| 20260905081514 | 57 | 166 | 0.0 | 1.0 | 0.00 | 0.00 | 0.00 | 1 | 1008.6 |
| 20260905080009 | 57 | 135 | 0.0 | 2.0 | 0.00 | 0.00 | 0.00 | 1 | 1008.6 |
| 20260905074504 | 57 | 173 | 0.0 | 3.0 | 0.00 | 0.00 | 0.00 | 1 | 1008.7 |
| 20260905073106 | 56 | 132 | 0.0 | 0.0 | 0.00 | 0.00 | 0.00 | 1 | 1008.7 |
| 20260905071556 | 57 | 163 | 0.0 | 0.0 | 0.00 | 0.00 | 0.00 | 1 | 1008.7 |
| 20260905070056 | 57 | 132 | 0.0 | 2.0 | 0.00 | 0.00 | 0.00 | 1 | 1008.8 |
| 20260905064545 | 57 | 166 | 0.0 | 2.0 | 0.00 | 0.00 | 0.00 | 1 | 1008.9 |
| 20260905063040 | 57 | 139 | 0.0 | 3.0 | 0.00 | 0.00 | 0.00 | 1 | 1009.0 |
| 20260905061540 | 57 | 185 | 0.0 | 3.0 | 0.00 | 0.00 | 0.00 | 1 | 1009.1 |
| 20260905060001 | 57 | 167 | 0.0 | 2.0 | 0.00 | 0.00 | 0.00 | 1 | 1009.0 |
| 20260905054557 | 57 | 69 | 0.0 | 1.0 | 0.00 | 0.00 | 0.00 | 1 | 1009.2 |
| 20260905053023 | 56 | 74 | 0.0 | 1.0 | 0.00 | 0.00 | 0.00 | 1 | 1009.3 |
| 20260905051526 | 57 | 167 | 0.0 | 0.0 | 0.00 | 0.00 | 0.00 | 1 | 1009.4 |
| 20260905050013 | 57 | 169 | 0.0 | 1.0 | 0.00 | 0.00 | 0.00 | 1 | 1009.5 |
| 20260905044509 | 57 | 128 | 0.0 | 2.0 | 0.00 | 0.00 | 0.00 | 1 | 1009.6 |
| 20260905043003 | 57 | 150 | 0.0 | 0.0 | 0.00 | 0.00 | 0.00 | 1 | 1009.5 |
| 20260905041559 | 57 | 153 | 0.0 | 1.0 | 0.00 | 0.00 | 0.00 | 1 | 1009.6 |
| 20260905040054 | 57 | 153 | 0.0 | 1.0 | 0.00 | 0.00 | 0.00 | 1 | 1009.7 |
| 20260905034548 | 58 | 159 | 0.0 | 1.0 | 0.00 | 0.00 | 0.00 | 1 | 1009.7 |
| 20260905033045 | 58 | 161 | 0.0 | 2.0 | 0.00 | 0.00 | 0.00 | 1 | 1009.4 |
| 20260905031548 | 58 | 170 | 0.0 | 0.0 | 0.00 | 0.00 | 0.00 | 1 | 1009.4 |
| 20260905030032 | 58 | 240 | 0.0 | 0.0 | 0.00 | 0.00 | 0.00 | 1 | 1009.4 |
| 20260905024532 | 58 | 136 | 0.0 | 0.0 | 0.00 | 0.00 | 0.00 | 1 | 1009.6 |
| 20260905023027 | 58 | 175 | 0.0 | 0.0 | 0.00 | 0.00 | 0.00 | 1 | 1009.8 |
| 20260905021519 | 59 | 346 | 0.0 | 0.0 | 0.00 | 0.00 | 0.00 | 1 | 1009.7 |
| 20260905020012 | 59 | 346 | 0.0 | 0.0 | 0.00 | 0.00 | 0.00 | 1 | 1009.7 |
| 20260905014508 | 59 | 344 | 0.0 | 0.0 | 0.00 | 0.00 | 0.00 | 1 | 1009.7 |
| 20260905013002 | 60 | 346 | 0.0 | 0.0 | 0.00 | 0.00 | 0.00 | 1 | 1009.8 |
| 20260905011600 | 60 | 345 | 0.0 | 0.0 | 0.00 | 0.00 | 0.00 | 1 | 1009.8 |
| 20260905010105 | 61 | 331 | 0.0 | 0.0 | 0.00 | 0.00 | 0.00 | 1 | 1009.6 |
| 20260905004548 | 61 | 340 | 0.0 | 0.0 | 0.00 | 0.00 | 0.00 | 1 | 1009.6 |
| 20260905003043 | 62 | 144 | 0.0 | 0.0 | 0.00 | 0.00 | 0.00 | 1 | 1009.7 |
| 20260905001547 | 63 | 173 | 0.0 | 0.0 | 0.00 | 0.00 | 0.00 | 1 | 1009.5 |
| 20260905000041 | 64 | 155 | 0.0 | 0.0 | 0.00 | 0.00 | 0.00 | 6 | 1009.2 |
| 20260904234533 | 65 | 161 | 0.0 | 0.0 | 0.00 | 0.00 | 0.00 | 15 | 1009.1 |
| 20260904233024 | 66 | 168 | 0.0 | 0.0 | 0.00 | 0.00 | 0.00 | 26 | 1009.0 |
| 20260904231525 | 67 | 143 | 0.0 | 3.0 | 0.00 | 0.00 | 0.00 | 44 | 1008.9 |
| 20260904230034 | 69 | 145 | 1.0 | 3.0 | 0.00 | 0.00 | 0.00 | 55 | 1008.9 |
| 20260904224510 | 70 | 309 | 2.0 | 5.0 | 0.00 | 0.00 | 0.00 | 58 | 1008.9 |
| 20260904223005 | 71 | 340 | 2.0 | 5.0 | 0.00 | 0.00 | 0.00 | 58 | 1008.9 |
| 20260904221505 | 72 | 25 | 5.0 | 11.0 | 0.00 | 0.00 | 0.00 | 58 | 1008.6 |
| 20260904220037 | 72 | 66 | 3.0 | 14.0 | 0.00 | 0.00 | 0.00 | 58 | 1008.6 |
| 20260904214534 | 73 | 331 | 5.0 | 10.0 | 0.00 | 0.00 | 0.00 | 57 | 1008.5 |
| 20260904213030 | 73 | 310 | 6.0 | 13.0 | 0.00 | 0.00 | 0.00 | 57 | 1008.6 |
| 20260904211529 | 73 | 360 | 5.0 | 14.0 | 0.00 | 0.00 | 0.00 | 58 | 1008.5 |
| 20260904210031 | 73 | 316 | 4.0 | 10.0 | 0.00 | 0.00 | 0.00 | 57 | 1008.7 |
| 20260904204528 | 74 | 24 | 5.0 | 15.0 | 0.00 | 0.00 | 0.00 | 56 | 1008.7 |
| 20260904203126 | 75 | 101 | 2.0 | 8.0 | 0.00 | 0.00 | 0.00 | 56 | 1008.7 |
| 20260904201558 | 75 | 346 | 5.0 | 11.0 | 0.00 | 0.00 | 0.00 | 54 | 1008.9 |
| 20260904200100 | 75 | 348 | 4.0 | 11.0 | 0.00 | 0.00 | 0.00 | 55 | 1009.0 |
| 20260904194552 | 74 | 5 | 5.0 | 15.0 | 0.00 | 0.00 | 0.00 | 55 | 1008.9 |
| 20260904193051 | 75 | 327 | 8.0 | 19.0 | 0.00 | 0.00 | 0.00 | 54 | 1009.0 |
| 20260904191550 | 75 | 5 | 1.0 | 12.0 | 0.00 | 0.00 | 0.00 | 55 | 1009.1 |
| 20260904190049 | 75 | 11 | 4.0 | 12.0 | 0.00 | 0.00 | 0.00 | 55 | 1009.0 |
| 20260904184604 | 75 | 5 | 4.0 | 11.0 | 0.00 | 0.00 | 0.00 | 54 | 1009.2 |
| 20260904183043 | 76 | 11 | 3.0 | 9.0 | 0.00 | 0.00 | 0.00 | 55 | 1009.3 |
| 20260904181539 | 75 | 344 | 4.0 | 10.0 | 0.00 | 0.00 | 0.00 | 56 | 1009.3 |
| 20260904180039 | 75 | 302 | 3.0 | 8.0 | 0.00 | 0.00 | 0.00 | 57 | 1009.2 |
| 20260904174607 | 73 | 258 | 6.0 | 12.0 | 0.00 | 0.00 | 0.00 | 58 | 1009.6 |
| 20260904173032 | 74 | 308 | 6.0 | 13.0 | 0.00 | 0.00 | 0.00 | 58 | 1009.8 |
| 20260904171533 | 74 | 349 | 6.0 | 12.0 | 0.00 | 0.00 | 0.00 | 58 | 1009.7 |
| 20260904170044 | 73 | 336 | 3.0 | 11.0 | 0.00 | 0.00 | 0.00 | 58 | 1010.0 |
| 20260904164528 | 73 | 321 | 4.0 | 10.0 | 0.00 | 0.00 | 0.00 | 58 | 1009.7 |
| 20260904163032 | 73 | 314 | 3.0 | 9.0 | 0.00 | 0.00 | 0.00 | 56 | 1009.7 |
| 20260904161524 | 73 | 227 | 4.0 | 12.0 | 0.00 | 0.00 | 0.00 | 57 | 1009.8 |
| 20260904160022 | 73 | 329 | 2.0 | 8.0 | 0.00 | 0.00 | 0.00 | 55 | 1010.0 |
| 20260904154518 | 72 | 15 | 6.0 | 11.0 | 0.00 | 0.00 | 0.00 | 55 | 1010.0 |
| 20260904153015 | 72 | 350 | 6.0 | 13.0 | 0.00 | 0.00 | 0.00 | 55 | 1010.2 |
| 20260904151514 | 72 | 273 | 4.0 | 12.0 | 0.00 | 0.00 | 0.00 | 52 | 1010.2 |
| 20260904150014 | 72 | 26 | 4.0 | 12.0 | 0.00 | 0.00 | 0.00 | 46 | 1010.2 |
| 20260904144511 | 70 | 14 | 6.0 | 11.0 | 0.00 | 0.00 | 0.00 | 38 | 1010.4 |
| 20260904143010 | 70 | 258 | 4.0 | 10.0 | 0.00 | 0.00 | 0.00 | 23 | 1010.5 |
| 20260904141509 | 69 | 53 | 3.0 | 11.0 | 0.00 | 0.00 | 0.00 | 8 | 1010.6 |
| 20260904140008 | 69 | 304 | 1.0 | 9.0 | 0.00 | 0.00 | 0.00 | 1 | 1010.4 |
| 20260904134505 | 69 | 315 | 2.0 | 8.0 | 0.00 | 0.00 | 0.00 | 1 | 1010.2 |
| 20260904133005 | 68 | 15 | 1.0 | 5.0 | 0.00 | 0.00 | 0.00 | 1 | 1010.3 |
| 20260904131504 | 66 | 36 | 2.0 | 8.0 | 0.00 | 0.00 | 0.00 | 1 | 1010.3 |
| 20260904130001 | 65 | 13 | 2.0 | 4.0 | 0.00 | 0.00 | 0.00 | 1 | 1010.5 |
| 20260904124557 | 64 | 304 | 2.0 | 6.0 | 0.00 | 0.00 | 0.00 | 1 | 1010.5 |
| 20260904123050 | 63 | 299 | 1.0 | 3.0 | 0.00 | 0.00 | 0.00 | 1 | 1010.6 |
| 20260904121546 | 63 | 43 | 0.0 | 2.0 | 0.00 | 0.00 | 0.00 | 1 | 1010.6 |
| 20260904120049 | 63 | 88 | 0.0 | 1.0 | 0.00 | 0.00 | 0.00 | 1 | 1010.5 |
| 20260904114536 | 62 | 142 | 0.0 | 1.0 | 0.00 | 0.00 | 0.00 | 1 | 1010.3 |
| 20260904113032 | 61 | 143 | 0.0 | 0.0 | 0.00 | 0.00 | 0.00 | 1 | 1010.3 |
| 20260904111525 | 60 | 144 | 0.0 | 0.0 | 0.00 | 0.00 | 0.00 | 1 | 1010.1 |
| 20260904110021 | 61 | 144 | 0.0 | 0.0 | 0.00 | 0.00 | 0.00 | 1 | 1010.0 |
| 20260904104550 | 61 | 133 | 0.0 | 1.0 | 0.00 | 0.00 | 0.00 | 1 | 1009.6 |
| 20260904103044 | 61 | 163 | 0.0 | 2.0 | 0.00 | 0.00 | 0.00 | 1 | 1009.6 |
| 20260904101512 | 61 | 161 | 0.0 | 1.0 | 0.00 | 0.00 | 0.00 | 1 | 1009.4 |
| 20260904100005 | 62 | 163 | 0.0 | 1.0 | 0.00 | 0.00 | 0.00 | 1 | 1009.4 |